Погода в Большом Тихвине

Россия / Тюменская область     57°02′10″N   66°43′45″E
темп.,
°C
ветер,
м/с
пор.,
м/с
влажн.,
%
обл.,
%
осадки,
мм/ч
давл.,
гПа
погр.,
м
23 апреля, пт
пт2323:00+8ююв6155236 0.0 1036595
02:00+6ююв51449100 0.0 1035500
05:00+4ююв4115598 0.0 1035309
08:00+8ю495793 0.0 1035384
11:00+13ююз5845100 0.0 10351014
14:00+13ю5844100 0.0 1034979
17:00+14ю693899 0.0 10331852
20:00+11ю51245100 0.0 1033724
24 апреля, сб
сб2423:00+9ю41145100 0.0 1033520
02:00+7ююв31047100 0.0 1032359
05:00+6ююв3950100 0.0 1031312
08:00+7ююв4844100 0.0 1030432
11:00+10ююв4636100 0.0 1028879
14:00+12ююв5634100 0.0 10271335
17:00+11ююв4637100 0.0 10261137
20:00+8юв4946100 0.0 1025582
25 апреля, вс
вс2523:00+7юв41052100 0.0 1023435
02:00+6юв41055100 0.0 1022408
05:00+5вюв31058100 0.0 1021378
08:00+7вюв3853100 0.0 1019459
11:00+11вюв5841100 0.0 10171068
14:00+15юв573199 0.0 10152157
17:00+15юв4732100 0.0 10132315
20:00+10ю486486 0.0 1013464
26 апреля, пн
пн2623:00+9ю487259 0.0 1012549
02:00+8ю3984100 0.6 1010572
05:00+6юз5118998 0.9 1010563
08:00+6зюз61379100 0.8 10121276
11:00+6з5107599 3.6 10141143
14:00+12з61133100 0.3 10143214
17:00+9зюз6115898 0.4 10161066
20:00+8юз4105569 0.1 1016335
27 апреля, вт
вт2723:00+5юз310660 0.1 1017209
02:00+4юз3964100 0.0 1017167
05:00+4ююз3866100 0.0 1017162
08:00+7ююз3755100 0.0 1016274
11:00+9ююз5651100 0.0 10151031
14:00+8ююв3569100 0.2 1012984
17:00+6в4788100 2.2 1010751
20:00+5всв3893100 3.3 1007529